Simultaneous Nadir Overpasses (SNOs) Predictions

Prediction of SNOs between GOES-16 and NOAA-20 Satellite Orbit:

Table of predicted SNOs for the next 14.0 days since TLE Epoch: 9/27/2019
Index Date Time (GOES-16) GOES-16 Lat,Lon NOAA-20 Lat,Lon Distance(km) Time Diff (sec)
1 09/28/2019 06:31:49 0.00, -75.19 0.30, -76.42 141.22 80
2 09/29/2019 06:10:26 0.00, -75.19 -0.76, -71.90 374.90 80
3 09/30/2019 18:32:22 -0.00, -75.19 -0.46, -77.20 229.17 80
4 10/01/2019 18:16:18 -0.00, -75.20 0.55, -72.67 287.31 80
5 10/03/2019 06:38:06 -0.00, -75.20 0.63, -77.95 313.54 80
6 10/04/2019 06:16:42 -0.00, -75.20 -0.38, -73.41 203.17 80
7 10/05/2019 18:38:39 0.00, -75.22 -0.78, -78.73 400.08 80
8 10/06/2019 18:22:34 0.00, -75.22 0.23, -74.20 117.04 80
9 10/08/2019 06:44:23 -0.00, -75.23 0.95, -79.47 482.58 80
10 10/09/2019 06:22:58 0.00, -75.25 -0.06, -74.94 34.94 80
11 10/11/2019 18:26:11 -0.00, -75.29 -0.08, -75.72 48.98 80




NCC Satellite Simultaneous Nadir Overpasses (SNOs) Prediction Service
